Regional Weather Roundup
Issued by NWS

Home | Current Version | Previous Version | Graphics & Text | Print | Product List | Glossary On
Versions: 1 2 3 4 5 6 7 8 9 10 11 12 13 14 15 16 17 18 19 20 21 22 23 24 25 26 27 28 29 30 31 32 33 34 35 36 37 38 39 40 41 42 43 44 45 46 47 48 49 50
000
ASUS43 KDMX 010008
RWRIA

WEATHER ROUNDUP FOR IOWA
NATIONAL WEATHER SERVICE DES MOINES IA
700 PM CDT FRI SEP 30 2016

NOTE: "FAIR" INDICATES FEW OR NO CLOUDS BELOW 12,000 FEET WITH NO
SIGNIFICANT WEATHER AND/OR OBSTRUCTIONS TO VISIBILITY.

* - THESE STATIONS ARE NOT NWS STATIONS...THUS NOT UNDER NWS
QUALITY CONTROL.  THEY ALSO DO NOT REPORT WEATHER SUCH
AS PRECIPITATION OR FOG.

IAZ001>003-012>014-020>022-031>034-043>046-010100-
   NORTHWEST IOWA

CITY           SKY/WX    TMP DP  RH WIND       PRES   REMARKS
CARROLL *      CLOUDY    68  55  64 E7        30.17S
CHEROKEE *     PTCLDY    65  51  62 E5        30.17S
DENISON *      CLOUDY    66  55  68 E7        30.15S
LE MARS *      CLEAR     68  46  45 CALM      30.17F
SHELDON *      CLEAR     64  48  55 E7        30.17S
SIOUX CITY     CLEAR     69  47  45 E3        30.16S
6HR MIN TEMP:  68; 6HR MAX TEMP:  76;

SPENCER        PTCLDY    65  52  62 E7        30.18F
6HR MIN TEMP:  65; 6HR MAX TEMP:  73;

STORM LAKE *   CLEAR     63  52  67 E6        30.18F
$$

IAZ055>058-069>071-079>083-090>094-010100-
   SOUTHWEST IOWA

CITY           SKY/WX    TMP DP  RH WIND       PRES   REMARKS
ATLANTIC *     CLEAR     64  55  72 E6        30.16F
AUDUBON *      CLEAR     63  55  77 E3        30.18F
CLARINDA *       N/A     64  55  72 MISG      30.17S
COUNCIL BLFS * CLEAR     66  52  59 E8        30.15S
CRESTON *      CLOUDY    63  54  72 N3        30.19S
HARLAN  *      PTCLDY    66  54  63 E5G12     30.19S
LAMONI         CLOUDY    61  55  81 N5        30.16S
6HR MIN TEMP:  61; 6HR MAX TEMP:  70;

RED OAK *      CLEAR     64  55  72 E9        30.16S
SHENANDOAH *   CLEAR     66  55  68 NE12      30.15R
$$

IAZ047>049-059>061-072>074-084-010100-
   CENTRAL IOWA

CITY           SKY/WX    TMP DP  RH WIND       PRES   REMARKS
AMES           CLOUDY    63  56  78 E3        30.17S
6HR MIN TEMP:  63; 6HR MAX TEMP:  65;

ANKENY *         N/A    N/A N/A N/A MISG        N/A
BOONE *        CLOUDY    63  55  77 E6        30.17S
CHARITON *       N/A     61  55  82 N5        30.16R
DES MOINES     CLOUDY    64  55  72 NE7       30.16S
6HR MIN TEMP:  63; 6HR MAX TEMP:  67;

GRINNELL*      CLOUDY    61  55  78 NE5       30.17S
KNOXVILLE *    CLOUDY    63  55  77 VRB3      30.15R
MARSHALLTOWN   CLOUDY    62  56  80 NE8       30.17S
6HR MIN TEMP:  62; 6HR MAX TEMP:  64;

NEWTON *       CLOUDY    61  55  82 N8        30.16S
PELLA *        MOCLDY    62  55  77 CALM      30.16S
PERRY *        CLOUDY    64  58  81 E3        30.17S
$$

IAZ004>006-015-016-023>025-035-036-010100-
   NORTH CENTRAL IOWA

CITY           SKY/WX    TMP DP  RH WIND       PRES   REMARKS
ALGONA *       CLOUDY    66  55  68 NE3       30.19S
CLARION *      CLOUDY    64  55  72 E5        30.18S
ESTHERVILLE    CLOUDY    66  54  65 E8        30.19S
6HR MIN TEMP:  66; 6HR MAX TEMP:  71;

FORT DODGE *   CLOUDY    64  54  68 E6        30.19S
MASON CITY     CLOUDY    63  54  72 E5        30.20S
6HR MIN TEMP:  63; 6HR MAX TEMP:  69;

FOREST CITY *  CLOUDY    64  54  68 SE6       30.19R
WEBSTER CITY * CLOUDY    64  55  72 E6        30.16S
IOWA FALLS *   CLOUDY    64  55  74 E7        30.19S
$$

IAZ007>011-017>019-026>030-037>042-050>054-066-010100-
   NORTHEAST IOWA

CITY           SKY/WX    TMP DP  RH WIND       PRES   REMARKS
CEDAR RAPIDS   CLOUDY    62  58  86 N12       30.15S
6HR MIN TEMP:  61; 6HR MAX TEMP:  64;

CHARLES CITY * CLOUDY    63  57  82 E5        30.20S
CLINTON *      LGT RAIN  61  59  93 NE13      30.12F
DECORAH *      CLOUDY    61  57  88 NE6       30.19S
DUBUQUE        CLOUDY    59  58  96 NE10      30.16S
6HR MIN TEMP:  59; 6HR MAX TEMP:  60; 6HR PCP:  0.02;

MONTICELLO *   CLOUDY    61  57  88 VRB7G14   30.15S
OELWEIN *      CLOUDY    59  57  94 NE10      30.19S
WATERLOO       CLOUDY    61  55  81 NE7       30.18S
6HR MIN TEMP:  61; 6HR MAX TEMP:  66;

$$

IAZ064-065-067-068-078-010100-
   EAST CENTRAL IOWA

CITY           SKY/WX    TMP DP  RH WIND       PRES   REMARKS
DAVENPORT      LGT RAIN  60  58  92 N9        30.12S FOG
6HR MIN TEMP:  60; 6HR MAX TEMP:  66; 6HR PCP: TRACE;

IOWA CITY      CLOUDY    62  57  83 N7        30.15S
6HR MIN TEMP:  62; 6HR MAX TEMP:  65;

MT. PLEASANT * CLOUDY    62  62  98 N9        30.13R
MUSCATINE *    CLOUDY    63  57  82 N9        30.13R
QUAD CITIES    CLOUDY    63  58  83 N6        30.11S
6HR MIN TEMP:  63; 6HR MAX TEMP:  67;

$$

IAZ062-063-075>077-085>089-095>099-010100-
   SOUTHEAST IOWA

CITY           SKY/WX    TMP DP  RH WIND       PRES   REMARKS
BURLINGTON     CLOUDY    63  58  83 NW12      30.10S
6HR MIN TEMP:  60; 6HR MAX TEMP:  67;

FAIRFIELD *    CLOUDY    63  55  77 N9        30.13F
FORT MADISON *   N/A     63  57  82 N10       30.12R
KEOKUK *       CLOUDY    64  57  77 N9        30.10S
OSKALOOSA *    CLOUDY    61  55  80 N6        30.15S
OTTUMWA        CLOUDY    63  54  72 N8        30.14F
6HR MIN TEMP:  63; 6HR MAX TEMP:  66;

WASHINGTON *     N/A    N/A N/A N/A MISG        N/A
$$

ABBREVIATIONS USED IN REMARKS
   TC - TEMPERATURES IN CELSIUS
  WCI - WIND CHILL INDEX
   HX - HEAT INDEX
  VSB - VISIBILITY
$$




USA.gov is the U.S. government's official web portal to all federal, state and local government web resources and services.